Tracking 23752 objects as of 23-Oct-2021
HD Live streaming from Space Station
objects crossing your sky now

DELTA 1 DEB

Track DELTA 1 DEB now!
10-day predictions


NORAD ID: 10183
Int'l Code: 1977-065M
Perigee: 565.6 km
Apogee: 1,375.0 km
Inclination: 29.2 °
Period: 104.3 minutes
Semi major axis: 7341 km
RCS: 0.111 m2 (medium)
Launch date: July 14, 1977
Source: United States (US)
Launch site: AIR FORCE EASTERN TEST RANGE (AFETR)

Note: This is SATELLITE DEBRIS
aabbcc
Your satellite tracking list
Your tracking list is empty




NASA's NSSDC Master Catalog

Two Line Element Set (TLE):
1 10183U 77065M   21295.53636721  .00001516  00000-0  41187-3 0  9997
2 10183  29.2154  27.0639 0551297 268.9368  84.8024 13.80199784174105
Source of the keplerian elements: AFSPC